Regional Weather Roundup
Issued by NWS Charleston, SC

Current Version | Previous Version | Graphics & Text | Print | Product List | Glossary On
Versions: 1 2 3 4 5 6 7 8 9 10 11 12 13 14 15 16 17 18 19 20 21 22 23 24 25 26 27 28 29 30 31 32 33 34 35 36 37 38 39 40 41 42 43 44 45 46 47 48 49 50
000
ASUS42 KCHS 230525
RWRCHS

REGIONAL WEATHER ROUNDUP
NATIONAL WEATHER SERVICE CHARLESTON SC
100 AM EDT SAT AUG 23 2014

NOTE: "FAIR" INDICATES FEW OR NO CLOUDS BELOW 12,000 FEET WITH NO
SIGNIFICANT WEATHER AND/OR OBSTRUCTIONS TO VISIBILITY.

NOT ALL STATIONS ARE QUALITY CONTROLLED BY THE NATIONAL
WEATHER SERVICE. USE DATA WITH CAUTION...ESPECIALLY
DEWPOINT OBSERVATIONS.

SCZ027-030-031-034>040-042>050-230600-
...SOUTH CAROLINA...

CITY           SKY/WX    TMP DP  RH WIND       PRES   REMARKS
N CHARLESTON   CLEAR     84  78  82 SW7       29.94F HX  95
WATERFRONT PRK   N/A     84 N/A N/A SW5         N/A
FORT JOHNSON   NOT AVBL
MOUNT PLEASANT FAIR      82  79  89 SW3       29.94F HX  93
JOHNS ISLAND   CLEAR     84  81  89 SW3       29.95S HX  98
PINOPOLIS        N/A     84  79  84 SW6       29.86F HX  96
MONCKS CORNER    N/A     81  79  94 CALM      29.94S
SUMMERVILLE    FAIR      79  79 100 CALM      29.95S
BEAUFORT MCAS  CLEAR     83  77  82 W6        29.95F HX  92
BEAUFORT ARPT  FAIR      84  77  79 SW5       29.95S HX  94
HILTON HEAD IS CLEAR     82  79  89 S6        29.96F HX  93
GEORGETOWN     NOT AVBL
WALTERBORO     CLEAR     82  82 100 SW5       29.95F HX  97
ORANGEBURG     CLEAR     78  74  87 CALM      29.95F
BARNWELL       FAIR      77  73  88 CALM      29.96F
AIKEN          FAIR      79  72  78 CALM      30.01S
MANNING        FAIR      77 N/A N/A CALM      29.95S
KINGSTREE      NOT AVBL
COLUMBIA       CLEAR     80  73  79 CALM      29.95S
SUMTER         CLEAR     81  71  73 SW3       29.94S
FLORENCE       CLEAR     80  75  84 CALM      29.94F
MYRTLE BEACH   CLEAR     84  79  84 SW6       29.94S HX  96
N MYRTLE BEACH PTCLDY    84  79  85 S7        29.94F HX  96

$$

GAZ063-065-086>088-099>101-113>116-118-119-134-136>141-150-230600-
...GEORGIA...

CITY           SKY/WX    TMP DP  RH WIND       PRES   REMARKS
SAVANNAH ARPT  CLEAR     83  73  72 SW5       29.97F
HUNTER AAF     CLEAR     83  75  75 SW5       29.95F HX  90
FORT STEWART   CLEAR     82  73  74 CALM      29.96F
STATESBORO     NOT AVBL
SYLVANIA       CLEAR     78  76  96 CALM      29.97F
CLAXTON        FAIR      79  79 100 CALM      29.97S
THOMSON        CLEAR     76  76 100 CALM      30.03S
AUGUSTA-BUSH   CLEAR     76  73  91 CALM      29.96S
AUGUSTA-DANIEL CLEAR     86  70  58 NW5       29.98F HX  90
SWAINSBORO     FAIR      79  75  89 CALM      29.99S
VIDALIA          N/A     81  73  78 CALM      29.98F
ALMA           CLEAR     78  75  90 CALM      29.98S
WAYCROSS       CLEAR     80  76  89 CALM      29.97F
JESUP            N/A     81  77  89 CALM      29.98S
BRUNSWICK      CLEAR     82  72  69 SW5       29.98F
SAINT SIMONS   CLEAR     83  74  74 SW5       29.98S

$$

SCZ027-028-034-036>038-045-046-048>050-GAZ119-141-230600-
...LAKE AND SUPPLEMENTAL COASTAL OBSERVATIONS...

STATION/POSITION TIME  TEMP    WIND        PRES    WAVE   SWELL
                       AIR SEA DIR/SP/G            HT/PER HT/PER/DIR
                 (UTC) (F)     (DEG/KT/KT) (MB)    (FT/S) (FT/S/D)
UPR LAKE MARION  NOT AVBL
WINYAH BAY       0500   84     220/  3     1014.0S
LAKE MURRAY      0400   83        CALM     1013.9S
ACE BASIN NERRS  0500   81        CALM     1014.0S
FORT PULASKI     0500   83     210/  5/  7 1014.7F
SAPELO ISLAND    0500   82     200/  4     1015.0S

$$

ANZ835-935-AMZ111-154-330-350-352-354-374-450-454-472-230600-
...C-MAN AND BUOY OBSERVATIONS...

STATION/POSITION TIME  TEMP    WIND        PRES    WAVE   SWELL
                       AIR SEA DIR/SP/G            HT/PER HT/PER/DIR
                 (UTC) (F)     (DEG/KT/KT) (MB)    (FT/S) (FT/S/D)
FOLLY BEACH CMAN 0500   86     220/ 11/ 13 1014.6F
BUOY 41004       0500   85 85  210/ 10/ 12 1013.8F
BUOY 41008       0500   86 86  210/ 12/ 14 1015.1R   1/ 3
5E ST. MARYS GA  0500      84                N/A     1/ 9
FRYING PAN BUOY  NOT AVBL
BUOY 41025       0500   78     330/  6/  8 1013.7F   2/ 8   2/ 40/ 8
CAPE LOOKOUT NC  0500   81      20/  6/  7 1013.6F
BUOY 41002       0448   82 82  240/ 14/ 17 1015.1F   2/ 5   2/120/ 8
BUOY 41010       0500   84 86  180/  6/  8 1016.4F   2/ 9   2/ 90/ 9
BUOY 41012       NOT AVBL
ST AUGUSTINE FL  0500   80     240/  6/  7 1016.2F
CAPERS NEARSHORE 0400   86     230/ 10/ 12   N/A
FRIPP NEARSHORE  NOT AVBL


$$



USA.gov is the U.S. government's official web portal to all federal, state and local government web resources and services.